OK1CMJ-5 Weather Reports


time (UTC)temp
F
wind
direction
speed
knots
gust
knots
rain 1hr
in
rain 24hr
in
rain mn
in
humidity
%
barometer
mb
20260509092646 59 3 1.7 3.5 0.00 0.00 0.00 41 1021.1
20260509091747 57 341 1.7 3.5 0.00 0.00 0.00 42 1021.0
20260509090847 56 114 0.9 3.5 0.00 0.00 0.00 44 1021.0
20260509085946 56 23 0.9 3.5 0.00 0.00 0.00 42 1021.1
20260509085046 57 23 1.7 3.5 0.00 0.00 0.00 41 1021.0
20260509084147 59 339 0.9 3.5 0.00 0.00 0.00 39 1021.1
20260509082347 59 346 0.0 3.5 0.00 0.00 0.00 44 1020.9
20260509081446 58 344 0.9 3.5 0.00 0.00 0.00 44 1020.9
20260509080547 57 261 0.0 3.5 0.00 0.00 0.00 45 1021.0
20260509075647 57 151 0.9 3.5 0.00 0.00 0.00 45 1021.0
20260509073846 59 158 0.9 3.5 0.00 0.00 0.00 43 1020.9
20260509072946 59 22 1.7 2.6 0.00 0.00 0.00 45 1021.1
20260509072046 58 326 0.9 3.5 0.00 0.00 0.00 45 1021.1
20260509070247 58 304 1.7 5.2 0.00 0.00 0.00 45 1021.1
20260509065346 58 136 0.0 3.5 0.00 0.00 0.00 45 1021.2
20260509064446 59 198 0.9 3.5 0.00 0.00 0.00 44 1020.9
20260509063546 60 102 0.0 3.5 0.00 0.00 0.00 43 1021.0
20260509062647 60 71 2.6 3.5 0.00 0.00 0.00 43 1021.0
20260509061747 59 338 0.9 2.6 0.00 0.00 0.00 46 1020.8
20260509060846 59 1 0.0 1.7 0.00 0.00 0.00 46 1020.8
20260509055946 59 23 0.9 3.5 0.00 0.00 0.00 51 1020.7
20260509055047 58 78 1.7 3.5 0.00 0.00 0.00 50 1020.7
20260509054146 59 1 0.9 3.5 0.00 0.00 0.00 54 1020.6
20260509053246 59 1 0.9 2.6 0.00 0.00 0.00 59 1020.8
20260509052346 58 1 0.0 1.7 0.00 0.00 0.00 75 1020.7
20260509050546 50 1 0.9 1.7 0.00 0.00 0.00 91 1020.5
20260509045646 49 0 0.0 0.0 0.00 0.00 0.00 91 1020.5
20260509044746 47 0 0.0 0.0 0.00 0.00 0.00 90 1020.5
20260509043846 46 0 0.0 0.0 0.00 0.00 0.00 89 1020.5
20260509042946 46 0 0.0 0.0 0.00 0.00 0.00 89 1020.4
20260509041146 45 0 0.0 0.0 0.00 0.00 0.00 87 1020.4
20260509035346 45 0 0.0 0.0 0.00 0.00 0.00 86 1020.4
20260509034446 44 0 0.0 0.0 0.00 0.00 0.00 86 1020.2
20260509033546 44 1 0.0 0.9 0.00 0.00 0.00 85 1020.4
20260509031746 44 0 0.0 0.0 0.00 0.00 0.00 84 1020.2
20260509025946 45 0 0.0 0.0 0.00 0.00 0.00 83 1020.1
20260509025046 45 0 0.0 0.0 0.00 0.00 0.00 83 1020.2
20260509024146 45 0 0.0 0.0 0.00 0.00 0.00 83 1020.3
20260509022346 45 0 0.0 0.0 0.00 0.00 0.00 82 1020.2
20260509021446 45 0 0.0 0.0 0.00 0.00 0.00 82 1020.3
20260509020546 45 0 0.0 0.0 0.00 0.00 0.00 81 1020.3
20260509014746 46 1 0.0 0.9 0.00 0.00 0.00 81 1020.5
20260509013846 46 1 0.0 1.7 0.00 0.00 0.00 81 1020.3
20260509012946 46 1 0.0 1.7 0.00 0.00 0.00 80 1020.5
20260509012046 46 1 0.0 0.9 0.00 0.00 0.00 80 1020.6
20260509011147 46 1 0.0 0.9 0.00 0.00 0.00 80 1020.5
20260509010246 46 1 0.0 1.7 0.00 0.00 0.00 79 1020.5
20260509005346 47 1 0.9 1.7 0.00 0.00 0.00 79 1020.5
20260509004446 47 1 0.0 1.7 0.00 0.00 0.00 79 1020.6
20260509003546 47 1 0.0 1.7 0.00 0.00 0.00 79 1020.7
20260509002646 46 1 0.0 1.7 0.00 0.00 0.00 79 1020.7
20260509001746 46 1 0.0 1.7 0.00 0.00 0.00 79 1020.6
20260509000846 47 1 0.0 1.7 0.00 0.00 0.00 79 1020.7
20260508235946 47 1 0.0 1.7 0.00 0.00 0.00 79 1020.7
20260508234146 47 1 0.0 0.9 0.00 0.00 0.00 79 1020.6
20260508233246 47 81 0.0 2.6 0.00 0.00 0.00 79 1020.9
20260508232346 47 90 0.0 1.7 0.00 0.00 0.00 79 1020.8
20260508231446 47 90 0.9 1.7 0.00 0.00 0.00 78 1020.6
20260508230546 47 90 0.0 0.9 0.00 0.00 0.00 78 1020.7
20260508225647 47 90 0.0 1.7 0.00 0.00 0.00 77 1020.8
20260508224746 47 90 0.0 1.7 0.00 0.00 0.00 78 1020.9
20260508223846 47 124 0.0 2.6 0.00 0.00 0.00 78 1020.9
20260508222946 47 314 0.0 1.7 0.00 0.00 0.00 77 1020.9
20260508222046 47 314 0.9 1.7 0.00 0.00 0.00 77 1020.9
20260508221146 47 315 0.0 1.7 0.00 0.00 0.00 77 1020.9
20260508220246 48 315 0.0 1.7 0.00 0.00 0.00 77 1020.8
20260508212646 47 314 1.7 3.5 0.00 0.00 0.00 77 1020.7
20260508211746 47 325 0.0 1.7 0.00 0.00 0.00 76 1020.7
20260508210846 47 344 0.0 1.7 0.00 0.00 0.00 75 1020.7
20260508205946 47 316 0.0 1.7 0.00 0.00 0.00 74 1020.6
20260508205046 47 294 0.0 1.7 0.00 0.00 0.00 73 1020.7
20260508204146 48 292 0.9 3.5 0.00 0.00 0.00 73 1020.7
20260508203246 48 312 0.0 2.6 0.00 0.00 0.00 73 1020.7
20260508202346 48 292 0.9 3.5 0.00 0.00 0.00 73 1020.4
20260508201447 47 292 0.0 1.7 0.00 0.00 0.00 72 1020.5
20260508200546 47 295 0.0 2.6 0.00 0.00 0.00 72 1020.5
20260508195646 46 302 0.9 2.6 0.00 0.00 0.00 69 1020.4
20260508193846 46 292 0.0 0.9 0.00 0.00 0.00 61 1020.3
20260508192046 48 292 0.0 1.7 0.00 0.00 0.00 59 1019.8
20260508191146 49 0 0.0 0.0 0.00 0.00 0.00 57 1019.8
20260508190247 50 292 0.0 1.7 0.00 0.00 0.00 56 1019.9
20260508185346 50 292 0.0 1.7 0.00 0.00 0.00 55 1019.6
20260508184446 51 292 0.0 2.6 0.00 0.00 0.00 53 1019.5
20260508183546 51 311 0.9 2.6 0.00 0.00 0.00 52 1019.4
20260508182646 52 1 0.0 3.5 0.00 0.00 0.00 50 1019.3
20260508181746 52 327 0.0 2.6 0.00 0.00 0.00 49 1019.4
20260508180846 53 292 0.0 2.6 0.00 0.00 0.00 48 1019.3
20260508175047 53 344 1.7 3.5 0.00 0.00 0.00 48 1019.0
20260508174146 53 292 0.9 3.5 0.00 0.00 0.00 47 1018.8
20260508173246 53 292 1.7 3.5 0.00 0.00 0.00 46 1018.9
20260508172346 54 331 1.7 4.3 0.00 0.00 0.00 44 1018.6
20260508171446 54 24 1.7 3.5 0.00 0.00 0.00 41 1018.7
20260508170546 56 294 1.7 3.5 0.00 0.00 0.00 38 1018.7
20260508165646 56 330 0.9 5.2 0.00 0.00 0.00 38 1018.7
20260508164746 57 317 2.6 5.2 0.00 0.00 0.00 37 1018.7
20260508163846 57 356 1.7 5.2 0.00 0.00 0.00 38 1018.7
20260508162946 58 24 1.7 6.1 0.00 0.00 0.00 37 1018.7
20260508155346 58 8 1.7 6.1 0.00 0.00 0.00 32 1018.9
20260508154446 59 340 3.5 7.0 0.00 0.00 0.00 32 1018.7
20260508153546 57 307 1.7 4.3 0.00 0.00 0.00 36 1018.7
20260508150846 62 289 1.7 5.2 0.00 0.00 0.00 26 1018.8
20260508145946 62 81 1.7 6.1 0.00 0.00 0.00 30 1018.7
20260508145046 59 346 2.6 5.2 0.00 0.00 0.00 32 1018.7
20260508144147 59 312 1.7 4.3 0.00 0.00 0.00 32 1019.0
20260508142346 60 88 1.7 3.5 0.00 0.00 0.00 32 1019.0
20260508141446 60 347 1.7 3.5 0.00 0.00 0.00 29 1019.0
20260508132537 62 1 0.9 7.0 0.00 0.00 0.00 25 1019.2
20260508131637 62 1 0.9 5.2 0.00 0.00 0.00 28 1019.1
20260508130737 60 348 1.7 3.5 0.00 0.00 0.00 29 1019.2
20260508125837 60 345 1.7 5.2 0.00 0.00 0.00 30 1019.3
20260508124937 60 331 2.6 5.2 0.00 0.00 0.00 29 1019.3
20260508124037 60 103 0.9 1.7 0.00 0.00 0.00 32 1019.3
20260508123137 60 62 0.0 3.5 0.00 0.00 0.00 35 1019.5
20260508122237 59 341 1.7 4.3 0.00 0.00 0.00 34 1019.3
20260508121337 58 205 1.7 4.3 0.00 0.00 0.00 37 1019.3
20260508114637 57 78 1.7 3.5 0.00 0.00 0.00 37 1019.2
20260508113737 57 55 1.7 4.3 0.00 0.00 0.00 37 1019.2
20260508112837 57 337 1.7 5.2 0.00 0.00 0.00 37 1019.4
20260508111937 59 351 1.7 4.3 0.00 0.00 0.00 36 1019.4
20260508110137 59 338 1.7 3.5 0.00 0.00 0.00 42 1019.3
20260508105237 58 26 2.6 5.2 0.00 0.00 0.00 41 1019.4
20260508104337 57 1 1.7 5.2 0.00 0.00 0.00 44 1019.5
20260508103437 56 15 1.7 3.5 0.00 0.00 0.00 48 1019.4
20260508102537 56 89 0.9 3.5 0.00 0.00 0.00 51 1019.5
20260508101637 55 68 2.6 5.2 0.00 0.00 0.00 54 1019.6
20260508100737 54 1 2.6 3.5 0.00 0.00 0.00 53 1019.4
20260508095837 54 342 1.7 5.2 0.00 0.00 0.00 56 1019.5
20260508094037 53 2 1.7 5.2 0.00 0.00 0.00 56 1019.5